Location: Shepherdstown, WV
(39.4326°N, 77.8042°W)
Time: 05:48:41
(UTC-04:00)

Vanguard 3 - Pass Details

Date: 09 August 2021
Orbit: 510 x 3260 km, 33.3° (Epoch: 21 September)

Event Time Altitude Azimuth Distance (km) Brightness Sun altitude
Rises 00:53:30 0° 276° (W) 6,994 12.1 -34.5°
Reaches altitude 10° 01:01:04 10° 259° (WSW) 6,169 11.5 -34.7°
Enters shadow 01:09:55 16° 231° (SW) 5,643 11.1 -34.8°
Maximum altitude 01:10:46 16° 229° (SW) 5,624 - -34.8°
Drops below altitude 10° 01:20:04 10° 198° (SSW) 5,818 - -34.8°
Sets 01:26:59 0° 179° (S) 6,410 - -34.7°
